,,PA_Meas_PMT16A,,PR_Meas_QMR101_102,,RH_Meas_QMH101,,SR_Meas_QMS101,,TA_Meas_QMH101,,GenWind,,GenWind,
time,status,PA,status,PR,status,RH,status,SR,status,TA,status,DirAvg,status,SpdAvg,
2012-11-28, 00:00:04,VALID,917.674,VALID,0,VALID,96.5429,VALID,0,VALID,20.3869,VALID,136,VALID,0,
2012-11-28, 00:01:04,VALID,917.713,VALID,0,VALID,96.5277,VALID,0,VALID,20.3869,VALID,120,VALID,0,
2012-11-28, 00:02:04,VALID,917.694,VALID,0,VALID,96.5506,VALID,0,VALID,20.3674,VALID,120,VALID,0,
2012-11-28, 00:03:04,VALID,917.711,VALID,0,VALID,96.5353,VALID,0,VALID,20.3674,VALID,120,VALID,0,
2012-11-28, 00:04:04,VALID,917.707,VALID,0,VALID,96.5658,VALID,0,VALID,20.3674,VALID,120,VALID,0,
2012-11-28, 00:05:04,VALID,917.683,VALID,0,VALID,96.5734,VALID,0,VALID,20.3479,VALID,132,VALID,0,
2012-11-28, 00:06:04,VALID,917.684,VALID,0,VALID,96.5887,VALID,0,VALID,20.3479,VALID,125,VALID,0,
2012-11-28, 00:07:04,VALID,917.69,VALID,0,VALID,96.6039,VALID,0,VALID,20.3284,VALID,123,VALID,0,
2012-11-28, 00:08:04,VALID,917.671,VALID,0,VALID,96.6268,VALID,0,VALID,20.3284,VALID,123,VALID,0,
2012-11-28, 00:09:04,VALID,917.658,VALID,0,VALID,96.6344,VALID,0,VALID,20.3284,VALID,114,VALID,0,
2012-11-28, 00:10:04,VALID,917.671,VALID,0,VALID,96.6497,VALID,0,VALID,20.3284,VALID,108,VALID,0,
2012-11-28, 00:11:04,VALID,917.677,VALID,0,VALID,96.6878,VALID,0,VALID,20.3089,VALID,108,VALID,0,
2012-11-28, 00:12:04,VALID,917.665,VALID,0,VALID,96.7107,VALID,0,VALID,20.3284,VALID,124,VALID,0,
2012-11-28, 00:13:04,VALID,917.694,VALID,0,VALID,96.7107,VALID,0,VALID,20.3089,VALID,124,VALID,0,
2012-11-28, 00:14:04,VALID,917.698,VALID,0,VALID,96.7183,VALID,0,VALID,20.2894,VALID,124,VALID,0,
2012-11-28, 00:15:04,VALID,917.691,VALID,0,VALID,96.7183,VALID,0,VALID,20.2699,VALID,123,VALID,0,
2012-11-28, 00:16:04,VALID,917.677,VALID,0,VALID,96.7335,VALID,0,VALID,20.2699,VALID,128,VALID,0,
2012-11-28, 00:17:04,VALID,917.672,VALID,0,VALID,96.764,VALID,0,VALID,20.2504,VALID,131,VALID,0,
2012-11-28, 00:18:04,VALID,917.688,VALID,0,VALID,96.7793,VALID,0,VALID,20.2504,VALID,131,VALID,0,
2012-11-28, 00:19:04,VALID,917.7,VALID,0,VALID,96.7869,VALID,0,VALID,20.2504,VALID,131,VALID,0,
2012-11-28, 00:20:04,VALID,917.706,VALID,0,VALID,96.8174,VALID,0,VALID,20.2309,VALID,121,VALID,0,
2012-11-28, 00:21:04,VALID,917.681,VALID,0,VALID,96.8174,VALID,0,VALID,20.2309,VALID,121,VALID,0,
2012-11-28, 00:22:04,VALID,917.692,VALID,0,VALID,96.8326,VALID,0,VALID,20.2309,VALID,136,VALID,0,
2012-11-28, 00:23:04,VALID,917.682,VALID,0,VALID,96.8098,VALID,0,VALID,20.2309,VALID,134,VALID,0,
2012-11-28, 00:24:04,VALID,917.702,VALID,0,VALID,96.8479,VALID,0,VALID,20.2309,VALID,129,VALID,0,
2012-11-28, 00:25:04,VALID,917.723,VALID,0,VALID,96.8631,VALID,0,VALID,20.2309,VALID,120,VALID,0,
2012-11-28, 00:26:04,VALID,917.687,VALID,0,VALID,96.8784,VALID,0,VALID,20.2309,VALID,119,VALID,0,
2012-11-28, 00:27:04,VALID,917.713,VALID,0,VALID,96.8936,VALID,0,VALID,20.2309,VALID,115,VALID,0,
2012-11-28, 00:28:04,VALID,917.714,VALID,0,VALID,96.9089,VALID,0,VALID,20.2309,VALID,115,VALID,0,
2012-11-28, 00:29:04,VALID,917.713,VALID,0,VALID,96.886,VALID,0,VALID,20.2309,VALID,115,VALID,0,
2012-11-28, 00:30:04,VALID,917.737,VALID,0,VALID,96.9012,VALID,0,VALID,20.2309,VALID,115,VALID,0,
2012-11-28, 00:31:04,VALID,917.739,VALID,0,VALID,96.8936,VALID,0,VALID,20.2098,VALID,115,VALID,0,
2012-11-28, 00:32:04,VALID,917.694,VALID,0,VALID,96.9089,VALID,0,VALID,20.2309,VALID,115,VALID,0,
2012-11-28, 00:33:04,VALID,917.681,VALID,0,VALID,96.9241,VALID,0,VALID,20.2504,VALID,129,VALID,0,
2012-11-28, 00:34:04,VALID,917.664,VALID,0,VALID,96.9089,VALID,0,VALID,20.2293,VALID,123,VALID,0,
2012-11-28, 00:35:04,VALID,917.633,VALID,0,VALID,96.9165,VALID,0,VALID,20.2699,VALID,125,VALID,0,
2012-11-28, 00:36:04,VALID,917.631,VALID,0,VALID,96.9165,VALID,0,VALID,20.2699,VALID,105,VALID,0,
2012-11-28, 00:37:04,VALID,917.613,VALID,0,VALID,96.9012,VALID,0,VALID,20.2699,VALID,116,VALID,0,
2012-11-28, 00:38:04,VALID,917.638,VALID,0,VALID,96.8936,VALID,0,VALID,20.2894,VALID,116,VALID,0,
2012-11-28, 00:39:04,VALID,917.613,VALID,0,VALID,96.8936,VALID,0,VALID,20.3089,VALID,114,VALID,0,
2012-11-28, 00:40:04,VALID,917.598,VALID,0,VALID,96.886,VALID,0,VALID,20.3089,VALID,114,VALID,0,
2012-11-28, 00:41:04,VALID,917.583,VALID,0,VALID,96.8784,VALID,0,VALID,20.2894,VALID,114,VALID,0,
2012-11-28, 00:42:04,VALID,917.597,VALID,0,VALID,96.8784,VALID,0,VALID,20.3089,VALID,114,VALID,0,
2012-11-28, 00:43:04,VALID,917.59,VALID,0,VALID,96.8555,VALID,0,VALID,20.2894,VALID,114,VALID,0,
2012-11-28, 00:44:04,VALID,917.556,VALID,0,VALID,96.8479,VALID,0,VALID,20.2894,VALID,114,VALID,0,
2012-11-28, 00:45:04,VALID,917.575,VALID,0,VALID,96.8479,VALID,0,VALID,20.3089,VALID,114,VALID,0,
2012-11-28, 00:46:04,VALID,917.534,VALID,0,VALID,96.8403,VALID,0,VALID,20.3089,VALID,114,VALID,0,
2012-11-28, 00:47:04,VALID,917.542,VALID,0,VALID,96.8326,VALID,0,VALID,20.3089,VALID,114,VALID,0,
2012-11-28, 00:48:04,VALID,917.501,VALID,0,VALID,96.8555,VALID,0,VALID,20.3089,VALID,114,VALID,0,
2012-11-28, 00:49:04,VALID,917.544,VALID,0,VALID,96.8403,VALID,0,VALID,20.3284,VALID,114,VALID,0,
2012-11-28, 00:50:04,VALID,917.491,VALID,0,VALID,96.8403,VALID,0,VALID,20.3885,VALID,114,VALID,0,
2012-11-28, 00:51:04,VALID,917.483,VALID,0,VALID,96.8403,VALID,0,VALID,20.3284,VALID,114,VALID,0,
2012-11-28, 00:52:04,VALID,917.451,VALID,0,VALID,96.8021,VALID,0,VALID,20.3495,VALID,114,VALID,0,
2012-11-28, 00:53:04,VALID,917.456,VALID,0,VALID,96.8174,VALID,0,VALID,20.3495,VALID,114,VALID,0,
2012-11-28, 00:54:04,VALID,917.418,VALID,0,VALID,96.8098,VALID,0,VALID,20.3284,VALID,114,VALID,0,
2012-11-28, 00:55:04,VALID,917.404,VALID,0,VALID,96.825,VALID,0,VALID,20.3479,VALID,114,VALID,0,
2012-11-28, 00:56:04,VALID,917.352,VALID,0,VALID,96.8174,VALID,0,VALID,20.3674,VALID,114,VALID,0,
2012-11-28, 00:57:04,VALID,917.364,VALID,0,VALID,96.8098,VALID,0,VALID,20.4064,VALID,114,VALID,0,
2012-11-28, 00:58:04,VALID,917.388,VALID,0,VALID,96.8174,VALID,0,VALID,20.4259,VALID,114,VALID,0,
2012-11-28, 00:59:04,VALID,917.427,VALID,0,VALID,96.7945,VALID,0,VALID,20.4064,VALID,114,VALID,0,
2012-11-28, 01:00:04,VALID,917.407,VALID,0,VALID,96.7564,VALID,0,VALID,20.3869,VALID,114,VALID,0,
2012-11-28, 01:01:04,VALID,917.409,VALID,0,VALID,96.7488,VALID,0,VALID,20.3674,VALID,114,VALID,0,
2012-11-28, 01:02:04,VALID,917.413,VALID,0,VALID,96.7259,VALID,0,VALID,20.3479,VALID,114,VALID,0,
2012-11-28, 01:03:04,VALID,917.389,VALID,0,VALID,96.6954,VALID,0,VALID,20.3269,VALID,114,VALID,0,
2012-11-28, 01:04:04,VALID,917.393,VALID,0,VALID,96.6954,VALID,0,VALID,20.3479,VALID,114,VALID,0,
2012-11-28, 01:05:04,VALID,917.406,VALID,0,VALID,96.6954,VALID,0,VALID,20.3479,VALID,114,VALID,0,
2012-11-28, 01:06:04,VALID,917.403,VALID,0,VALID,96.7107,VALID,0,VALID,20.3479,VALID,114,VALID,0,
2012-11-28, 01:07:04,VALID,917.413,VALID,0,VALID,96.6954,VALID,0,VALID,20.3089,VALID,114,VALID,0,
2012-11-28, 01:08:04,VALID,917.398,VALID,0,VALID,96.6725,VALID,0,VALID,20.3495,VALID,114,VALID,0,
2012-11-28, 01:09:04,VALID,917.399,VALID,0,VALID,96.703,VALID,0,VALID,20.3495,VALID,114,VALID,0,
2012-11-28, 01:10:04,VALID,917.369,VALID,0,VALID,96.6954,VALID,0,VALID,20.3284,VALID,114,VALID,0,
2012-11-28, 01:11:04,VALID,917.392,VALID,0,VALID,96.6954,VALID,0,VALID,20.3495,VALID,114,VALID,0,
2012-11-28, 01:12:04,VALID,917.358,VALID,0,VALID,96.7183,VALID,0,VALID,20.3089,VALID,114,VALID,0,
2012-11-28, 01:13:04,VALID,917.361,VALID,0,VALID,96.703,VALID,0,VALID,20.3089,VALID,114,VALID,0,
2012-11-28, 01:14:04,VALID,917.356,VALID,0,VALID,96.703,VALID,0,VALID,20.3089,VALID,114,VALID,0,
2012-11-28, 01:15:04,VALID,917.326,VALID,0,VALID,96.7107,VALID,0,VALID,20.3105,VALID,114,VALID,0,
2012-11-28, 01:16:05,VALID,917.351,VALID,0,VALID,96.6878,VALID,0,VALID,20.2894,VALID,114,VALID,0,
2012-11-28, 01:17:05,VALID,917.34,VALID,0,VALID,96.703,VALID,0,VALID,20.2504,VALID,114,VALID,0,
2012-11-28, 01:18:05,VALID,917.314,VALID,0,VALID,96.6954,VALID,0,VALID,20.2519,VALID,114,VALID,0,
2012-11-28, 01:19:05,VALID,917.305,VALID,0,VALID,96.7107,VALID,0,VALID,20.2714,VALID,114,VALID,0,
2012-11-28, 01:20:05,VALID,917.281,VALID,0,VALID,96.7259,VALID,0,VALID,20.2909,VALID,114,VALID,0,
2012-11-28, 01:21:05,VALID,917.259,VALID,0,VALID,96.7488,VALID,0,VALID,20.2504,VALID,115,VALID,0,
2012-11-28, 01:22:05,VALID,917.274,VALID,0,VALID,96.7411,VALID,0,VALID,20.2699,VALID,121,VALID,0,
2012-11-28, 01:23:05,VALID,917.274,VALID,0,VALID,96.7564,VALID,0,VALID,20.2894,VALID,121,VALID,0,
2012-11-28, 01:24:05,VALID,917.251,VALID,0,VALID,96.7869,VALID,0,VALID,20.2504,VALID,121,VALID,0,
2012-11-28, 01:25:05,VALID,917.217,VALID,0,VALID,96.7716,VALID,0,VALID,20.2909,VALID,121,VALID,0,
2012-11-28, 01:26:05,VALID,917.205,VALID,0,VALID,96.7793,VALID,0,VALID,20.2504,VALID,121,VALID,0,
2012-11-28, 01:27:05,VALID,917.173,VALID,0,VALID,96.7869,VALID,0,VALID,20.2504,VALID,121,VALID,0,
2012-11-28, 01:28:05,VALID,917.184,VALID,0,VALID,96.7945,VALID,0,VALID,20.2309,VALID,121,VALID,0,
2012-11-28, 01:29:05,VALID,917.166,VALID,0,VALID,96.7716,VALID,0,VALID,20.2504,VALID,121,VALID,0,
2012-11-28, 01:30:05,VALID,917.136,VALID,0,VALID,96.8174,VALID,0,VALID,20.2504,VALID,121,VALID,0,
2012-11-28, 01:31:05,VALID,917.151,VALID,0,VALID,96.825,VALID,0,VALID,20.2699,VALID,121,VALID,0,
2012-11-28, 01:32:05,VALID,917.127,VALID,0,VALID,96.825,VALID,0,VALID,20.2894,VALID,121,VALID,0,
2012-11-28, 01:33:05,VALID,917.101,VALID,0,VALID,96.8403,VALID,0,VALID,20.2894,VALID,121,VALID,0,
2012-11-28, 01:34:05,VALID,917.083,VALID,0,VALID,96.8326,VALID,0,VALID,20.2699,VALID,121,VALID,0,
2012-11-28, 01:35:05,VALID,917.085,VALID,0,VALID,96.8403,VALID,0,VALID,20.2699,VALID,121,VALID,0,
2012-11-28, 01:36:05,VALID,917.058,VALID,0,VALID,96.825,VALID,0,VALID,20.2504,VALID,121,VALID,0,
2012-11-28, 01:37:05,VALID,917.043,VALID,0,VALID,96.825,VALID,0,VALID,20.2309,VALID,121,VALID,0,
2012-11-28, 01:38:05,VALID,917.04,VALID,0,VALID,96.8403,VALID,0,VALID,20.2699,VALID,121,VALID,0,
2012-11-28, 01:39:05,VALID,917.029,VALID,0,VALID,96.8403,VALID,0,VALID,20.2699,VALID,121,VALID,0,
2012-11-28, 01:40:05,VALID,916.99,VALID,0,VALID,96.8555,VALID,0,VALID,20.2699,VALID,121,VALID,0,
2012-11-28, 01:41:05,VALID,916.959,VALID,0,VALID,96.8631,VALID,0,VALID,20.2504,VALID,121,VALID,0,
2012-11-28, 01:42:05,VALID,916.957,VALID,0,VALID,96.8555,VALID,0,VALID,20.2699,VALID,121,VALID,0,
2012-11-28, 01:43:05,VALID,916.944,VALID,0,VALID,96.8555,VALID,0,VALID,20.2699,VALID,121,VALID,0,
2012-11-28, 01:44:05,VALID,916.93,VALID,0,VALID,96.886,VALID,0,VALID,20.2714,VALID,121,VALID,0,
2012-11-28, 01:45:05,VALID,916.907,VALID,0,VALID,96.8707,VALID,0,VALID,20.2504,VALID,121,VALID,0,
2012-11-28, 01:46:05,VALID,916.896,VALID,0,VALID,96.8555,VALID,0,VALID,20.2504,VALID,121,VALID,0,
2012-11-28, 01:47:05,VALID,916.902,VALID,0,VALID,96.8555,VALID,0,VALID,20.2309,VALID,121,VALID,0,
2012-11-28, 01:48:05,VALID,916.906,VALID,0,VALID,96.8479,VALID,0.107441,VALID,20.2309,VALID,121,VALID,0,
2012-11-28, 01:49:05,VALID,916.863,VALID,0,VALID,96.8403,VALID,0,VALID,20.2309,VALID,121,VALID,0,
2012-11-28, 01:50:05,VALID,916.884,VALID,0,VALID,96.8479,VALID,0,VALID,20.2519,VALID,121,VALID,0,
2012-11-28, 01:51:05,VALID,916.829,VALID,0,VALID,96.8403,VALID,0,VALID,20.2309,VALID,121,VALID,0,
2012-11-28, 01:52:05,VALID,916.834,VALID,0,VALID,96.8326,VALID,0,VALID,20.2309,VALID,121,VALID,0,
2012-11-28, 01:53:05,VALID,916.821,VALID,0,VALID,96.8403,VALID,0,VALID,20.2309,VALID,121,VALID,0,
2012-11-28, 01:54:05,VALID,916.79,VALID,0,VALID,96.825,VALID,0,VALID,20.2114,VALID,121,VALID,0,
2012-11-28, 01:55:05,VALID,916.801,VALID,0,VALID,96.8098,VALID,0,VALID,20.2324,VALID,121,VALID,0,
2012-11-28, 01:56:05,VALID,916.79,VALID,0,VALID,96.7945,VALID,0,VALID,20.2309,VALID,121,VALID,0,
2012-11-28, 01:57:05,VALID,916.761,VALID,0,VALID,96.8098,VALID,0,VALID,20.2519,VALID,121,VALID,0,
2012-11-28, 01:58:05,VALID,916.761,VALID,0,VALID,96.825,VALID,0,VALID,20.2504,VALID,121,VALID,0,
2012-11-28, 01:59:05,VALID,916.761,VALID,0,VALID,96.8021,VALID,0,VALID,20.2504,VALID,121,VALID,0,
2012-11-28, 02:00:05,VALID,916.773,VALID,0,VALID,96.7945,VALID,0,VALID,20.2519,VALID,121,VALID,0,
2012-11-28, 02:01:05,VALID,916.735,VALID,0,VALID,96.7793,VALID,0,VALID,20.2309,VALID,121,VALID,0,
2012-11-28, 02:02:05,VALID,916.733,VALID,0,VALID,96.8021,VALID,0,VALID,20.2519,VALID,121,VALID,0,
2012-11-28, 02:03:05,VALID,916.72,VALID,0,VALID,96.7869,VALID,0,VALID,20.2324,VALID,121,VALID,0,
2012-11-28, 02:04:05,VALID,916.704,VALID,0,VALID,96.764,VALID,0,VALID,20.2324,VALID,121,VALID,0,
2012-11-28, 02:05:05,VALID,916.681,VALID,0,VALID,96.7564,VALID,0,VALID,20.2114,VALID,121,VALID,0,
2012-11-28, 02:06:05,VALID,916.647,VALID,0,VALID,96.7488,VALID,0,VALID,20.1919,VALID,121,VALID,0,
2012-11-28, 02:07:05,VALID,916.632,VALID,0,VALID,96.7411,VALID,0,VALID,20.1919,VALID,121,VALID,0,
2012-11-28, 02:08:05,VALID,916.628,VALID,0,VALID,96.7564,VALID,0,VALID,20.1934,VALID,121,VALID,0,
2012-11-28, 02:09:05,VALID,916.591,VALID,0,VALID,96.7107,VALID,0,VALID,20.1739,VALID,121,VALID,0,
2012-11-28, 02:10:05,VALID,916.599,VALID,0,VALID,96.6878,VALID,0,VALID,20.1544,VALID,121,VALID,0,
2012-11-28, 02:11:05,VALID,916.584,VALID,0,VALID,96.6573,VALID,0,VALID,20.1139,VALID,121,VALID,0,
2012-11-28, 02:12:05,VALID,916.576,VALID,0,VALID,96.6802,VALID,0,VALID,20.1154,VALID,121,VALID,0,
2012-11-28, 02:13:05,VALID,916.527,VALID,0,VALID,96.6649,VALID,0,VALID,20.0553,VALID,121,VALID,0,
2012-11-28, 02:14:05,VALID,916.518,VALID,0,VALID,96.6573,VALID,0,VALID,20.0163,VALID,121,VALID,0,
2012-11-28, 02:15:05,VALID,916.498,VALID,0,VALID,96.642,VALID,0,VALID,19.9773,VALID,121,VALID,0,
2012-11-28, 02:16:05,VALID,916.485,VALID,0,VALID,96.6497,VALID,0,VALID,19.9383,VALID,121,VALID,0,
2012-11-28, 02:17:05,VALID,916.466,VALID,0,VALID,96.6649,VALID,0,VALID,19.9188,VALID,56,VALID,0,
2012-11-28, 02:18:05,VALID,916.436,VALID,0,VALID,96.7107,VALID,0,VALID,19.8993,VALID,56,VALID,0,
2012-11-28, 02:19:05,VALID,916.376,VALID,0,VALID,96.7411,VALID,0,VALID,19.9203,VALID,57,VALID,0,
2012-11-28, 02:20:05,VALID,916.388,VALID,0,VALID,96.7716,VALID,0,VALID,19.9008,VALID,57,VALID,0,
2012-11-28, 02:21:05,VALID,916.356,VALID,0,VALID,96.7793,VALID,0,VALID,19.9008,VALID,57,VALID,0,
2012-11-28, 02:22:05,VALID,916.392,VALID,0,VALID,96.8098,VALID,0,VALID,19.8813,VALID,61,VALID,0,
2012-11-28, 02:23:05,VALID,916.373,VALID,0,VALID,96.825,VALID,0,VALID,19.8813,VALID,61,VALID,0,
2012-11-28, 02:24:05,VALID,916.361,VALID,0,VALID,96.8631,VALID,0,VALID,19.9008,VALID,61,VALID,0,
2012-11-28, 02:25:05,VALID,916.356,VALID,0,VALID,96.8707,VALID,0,VALID,19.8813,VALID,61,VALID,0,
2012-11-28, 02:26:05,VALID,916.353,VALID,0,VALID,96.886,VALID,0,VALID,19.8798,VALID,61,VALID,0,
2012-11-28, 02:27:05,VALID,916.358,VALID,0,VALID,96.9012,VALID,0,VALID,19.9203,VALID,61,VALID,0,
2012-11-28, 02:28:05,VALID,916.357,VALID,0,VALID,96.9241,VALID,0,VALID,19.9398,VALID,61,VALID,0,
2012-11-28, 02:29:05,VALID,916.354,VALID,0,VALID,96.947,VALID,0,VALID,19.9593,VALID,61,VALID,0,
2012-11-28, 02:30:05,VALID,916.315,VALID,0,VALID,96.9394,VALID,0,VALID,19.9383,VALID,61,VALID,0,
2012-11-28, 02:31:05,VALID,916.364,VALID,0,VALID,96.9317,VALID,0,VALID,19.9383,VALID,61,VALID,0,
2012-11-28, 02:32:05,VALID,916.341,VALID,0,VALID,96.9546,VALID,0,VALID,19.9398,VALID,61,VALID,0,
2012-11-28, 02:33:05,VALID,916.352,VALID,0,VALID,96.9394,VALID,0,VALID,19.9383,VALID,61,VALID,0,
2012-11-28, 02:34:05,VALID,916.379,VALID,0,VALID,96.9546,VALID,0,VALID,19.9383,VALID,61,VALID,0,
2012-11-28, 02:35:05,VALID,916.329,VALID,0,VALID,96.9851,VALID,0,VALID,19.9188,VALID,61,VALID,0,
2012-11-28, 02:36:05,VALID,916.325,VALID,0,VALID,96.9775,VALID,0,VALID,19.8993,VALID,61,VALID,0,
2012-11-28, 02:37:05,VALID,916.3,VALID,0,VALID,96.9775,VALID,0,VALID,19.8798,VALID,61,VALID,0,
2012-11-28, 02:38:05,VALID,916.32,VALID,0,VALID,96.9851,VALID,0,VALID,19.8993,VALID,61,VALID,0,
2012-11-28, 02:39:05,VALID,916.279,VALID,0,VALID,96.9775,VALID,0,VALID,19.9008,VALID,61,VALID,0,
2012-11-28, 02:40:05,VALID,916.283,VALID,0,VALID,96.9775,VALID,0,VALID,19.9008,VALID,61,VALID,0,
2012-11-28, 02:41:05,VALID,916.297,VALID,0,VALID,97.0003,VALID,0,VALID,19.8798,VALID,61,VALID,0,
2012-11-28, 02:42:05,VALID,916.318,VALID,0,VALID,97.008,VALID,0,VALID,19.9008,VALID,61,VALID,0,
2012-11-28, 02:43:05,VALID,916.313,VALID,0,VALID,97.0232,VALID,0,VALID,19.9008,VALID,61,VALID,0,
2012-11-28, 02:44:05,VALID,916.299,VALID,0,VALID,97.0232,VALID,0,VALID,19.8798,VALID,61,VALID,0,
2012-11-28, 02:45:05,VALID,916.303,VALID,0,VALID,97.0385,VALID,0,VALID,19.8603,VALID,61,VALID,0,
2012-11-28, 02:46:05,VALID,916.298,VALID,0,VALID,97.0156,VALID,0,VALID,19.8213,VALID,61,VALID,0,
2012-11-28, 02:47:05,VALID,916.281,VALID,0,VALID,97.0461,VALID,0,VALID,19.8213,VALID,61,VALID,0,
2012-11-28, 02:48:05,VALID,916.269,VALID,0,VALID,97.0385,VALID,0,VALID,19.8423,VALID,61,VALID,0,
2012-11-28, 02:49:05,VALID,916.267,VALID,0,VALID,97.0613,VALID,0,VALID,19.8213,VALID,79,VALID,0,
2012-11-28, 02:50:05,VALID,916.285,VALID,0,VALID,97.0613,VALID,0,VALID,19.8423,VALID,105,VALID,0,
2012-11-28, 02:51:05,VALID,916.291,VALID,0,VALID,97.0918,VALID,0,VALID,19.8423,VALID,105,VALID,0,
2012-11-28, 02:52:05,VALID,916.316,VALID,0,VALID,97.0766,VALID,0,VALID,19.8423,VALID,105,VALID,0,
2012-11-28, 02:53:05,VALID,916.296,VALID,0,VALID,97.0918,VALID,0,VALID,19.8213,VALID,105,VALID,0,
2012-11-28, 02:54:05,VALID,916.316,VALID,0,VALID,97.1071,VALID,0,VALID,19.8618,VALID,105,VALID,0,
2012-11-28, 02:55:05,VALID,916.32,VALID,0,VALID,97.0842,VALID,0,VALID,19.8408,VALID,105,VALID,0,
2012-11-28, 02:56:05,VALID,916.33,VALID,0,VALID,97.1147,VALID,0,VALID,19.8408,VALID,105,VALID,0,
2012-11-28, 02:57:05,VALID,916.352,VALID,0,VALID,97.1147,VALID,0,VALID,19.8618,VALID,105,VALID,0,
2012-11-28, 02:58:05,VALID,916.342,VALID,0,VALID,97.1147,VALID,0,VALID,19.8408,VALID,105,VALID,0,
2012-11-28, 02:59:05,VALID,916.291,VALID,0,VALID,97.1223,VALID,0,VALID,19.8423,VALID,105,VALID,0,
2012-11-28, 03:00:05,VALID,916.325,VALID,0,VALID,97.1299,VALID,0,VALID,19.8423,VALID,105,VALID,0,
2012-11-28, 03:01:05,VALID,916.345,VALID,0,VALID,97.1147,VALID,0,VALID,19.8408,VALID,105,VALID,0,
2012-11-28, 03:02:05,VALID,916.328,VALID,0,VALID,97.1528,VALID,0,VALID,19.8813,VALID,105,VALID,0,
2012-11-28, 03:03:05,VALID,916.344,VALID,0,VALID,97.1452,VALID,0,VALID,19.8618,VALID,105,VALID,0,
2012-11-28, 03:04:05,VALID,916.351,VALID,0,VALID,97.1604,VALID,0,VALID,19.8618,VALID,105,VALID,0,
2012-11-28, 03:05:05,VALID,916.358,VALID,0,VALID,97.1452,VALID,0,VALID,19.8423,VALID,105,VALID,0,
2012-11-28, 03:06:05,VALID,916.359,VALID,0,VALID,97.1452,VALID,0,VALID,19.8018,VALID,105,VALID,0,
2012-11-28, 03:07:05,VALID,916.336,VALID,0,VALID,97.1604,VALID,0,VALID,19.7838,VALID,105,VALID,0,
2012-11-28, 03:08:05,VALID,916.317,VALID,0,VALID,97.1604,VALID,0,VALID,19.7643,VALID,105,VALID,0,
2012-11-28, 03:09:05,VALID,916.328,VALID,0,VALID,97.1604,VALID,0,VALID,19.7238,VALID,105,VALID,0,
2012-11-28, 03:10:05,VALID,916.303,VALID,0,VALID,97.1528,VALID,0,VALID,19.7058,VALID,105,VALID,0,
2012-11-28, 03:11:05,VALID,916.299,VALID,0,VALID,97.1452,VALID,0,VALID,19.6668,VALID,105,VALID,0,
2012-11-28, 03:12:05,VALID,916.332,VALID,0,VALID,97.1757,VALID,0,VALID,19.6458,VALID,105,VALID,0,
2012-11-28, 03:13:05,VALID,916.309,VALID,0,VALID,97.1528,VALID,0,VALID,19.6668,VALID,105,VALID,0,
2012-11-28, 03:14:05,VALID,916.318,VALID,0,VALID,97.1452,VALID,0,VALID,19.6068,VALID,105,VALID,0,
2012-11-28, 03:15:05,VALID,916.321,VALID,0,VALID,97.1681,VALID,0,VALID,19.6083,VALID,105,VALID,0,
2012-11-28, 03:16:05,VALID,916.391,VALID,0,VALID,97.1681,VALID,0,VALID,19.6083,VALID,105,VALID,0,
2012-11-28, 03:17:05,VALID,916.35,VALID,0,VALID,97.1757,VALID,0,VALID,19.6278,VALID,105,VALID,0,
2012-11-28, 03:18:05,VALID,916.405,VALID,0,VALID,97.1986,VALID,0,VALID,19.5888,VALID,105,VALID,0,
2012-11-28, 03:19:05,VALID,916.364,VALID,0,VALID,97.1986,VALID,0,VALID,19.5693,VALID,105,VALID,0,
2012-11-28, 03:20:05,VALID,916.408,VALID,0,VALID,97.2138,VALID,0,VALID,19.5888,VALID,105,VALID,0,
2012-11-28, 03:21:05,VALID,916.378,VALID,0,VALID,97.2062,VALID,0,VALID,19.6083,VALID,105,VALID,0,
2012-11-28, 03:22:05,VALID,916.362,VALID,0,VALID,97.2138,VALID,0,VALID,19.6278,VALID,105,VALID,0,
2012-11-28, 03:23:05,VALID,916.363,VALID,0,VALID,97.2214,VALID,0,VALID,19.6068,VALID,105,VALID,0,
2012-11-28, 03:24:05,VALID,916.341,VALID,0,VALID,97.2214,VALID,0,VALID,19.6083,VALID,105,VALID,0,
2012-11-28, 03:25:05,VALID,916.337,VALID,0,VALID,97.2367,VALID,0,VALID,19.6083,VALID,105,VALID,0,
2012-11-28, 03:26:05,VALID,916.365,VALID,0,VALID,97.229,VALID,0,VALID,19.6083,VALID,105,VALID,0,
2012-11-28, 03:27:05,VALID,916.301,VALID,0,VALID,97.2595,VALID,0,VALID,19.6083,VALID,105,VALID,0,
2012-11-28, 03:28:05,VALID,916.313,VALID,0,VALID,97.2519,VALID,0,VALID,19.6083,VALID,105,VALID,0,
2012-11-28, 03:29:05,VALID,916.296,VALID,0,VALID,97.2595,VALID,0,VALID,19.5888,VALID,105,VALID,0,
2012-11-28, 03:30:05,VALID,916.312,VALID,0,VALID,97.2595,VALID,0,VALID,19.6083,VALID,105,VALID,0,
2012-11-28, 03:31:05,VALID,916.3,VALID,0,VALID,97.2519,VALID,0,VALID,19.5873,VALID,105,VALID,0,
2012-11-28, 03:32:05,VALID,916.309,VALID,0,VALID,97.2748,VALID,0,VALID,19.6278,VALID,105,VALID,0,
2012-11-28, 03:33:05,VALID,916.332,VALID,0,VALID,97.2672,VALID,0,VALID,19.6278,VALID,105,VALID,0,
2012-11-28, 03:34:05,VALID,916.324,VALID,0,VALID,97.29,VALID,0,VALID,19.6263,VALID,105,VALID,0,
2012-11-28, 03:35:05,VALID,916.353,VALID,0,VALID,97.2595,VALID,0,VALID,19.6278,VALID,105,VALID,0,
2012-11-28, 03:36:05,VALID,916.344,VALID,0,VALID,97.2977,VALID,0,VALID,19.6278,VALID,105,VALID,0,
2012-11-28, 03:37:05,VALID,916.335,VALID,0,VALID,97.2824,VALID,0,VALID,19.6083,VALID,105,VALID,0,
2012-11-28, 03:38:05,VALID,916.352,VALID,0,VALID,97.29,VALID,0,VALID,19.6083,VALID,105,VALID,0,
2012-11-28, 03:39:05,VALID,916.36,VALID,0,VALID,97.3129,VALID,0,VALID,19.6083,VALID,105,VALID,0,
2012-11-28, 03:40:05,VALID,916.375,VALID,0,VALID,97.3129,VALID,0,VALID,19.6083,VALID,105,VALID,0,
2012-11-28, 03:41:05,VALID,916.361,VALID,0,VALID,97.29,VALID,0,VALID,19.6263,VALID,105,VALID,0,
2012-11-28, 03:42:05,VALID,916.37,VALID,0,VALID,97.29,VALID,0,VALID,19.6278,VALID,105,VALID,0,
2012-11-28, 03:43:05,VALID,916.327,VALID,0,VALID,97.3129,VALID,0,VALID,19.5873,VALID,105,VALID,0,
2012-11-28, 03:44:05,VALID,916.335,VALID,0,VALID,97.3053,VALID,0,VALID,19.5888,VALID,105,VALID,0,
2012-11-28, 03:45:05,VALID,916.367,VALID,0,VALID,97.3205,VALID,0,VALID,19.5693,VALID,105,VALID,0,
2012-11-28, 03:46:05,VALID,916.386,VALID,0,VALID,97.3281,VALID,0,VALID,19.5678,VALID,105,VALID,0,
2012-11-28, 03:47:05,VALID,916.408,VALID,0,VALID,97.3358,VALID,0,VALID,19.6083,VALID,105,VALID,0,
2012-11-28, 03:48:05,VALID,916.373,VALID,0,VALID,97.3053,VALID,0,VALID,19.6083,VALID,105,VALID,0,
2012-11-28, 03:49:05,VALID,916.407,VALID,0,VALID,97.3129,VALID,0,VALID,19.6083,VALID,105,VALID,0,
2012-11-28, 03:50:05,VALID,916.405,VALID,0,VALID,97.3205,VALID,0,VALID,19.6263,VALID,105,VALID,0,
2012-11-28, 03:51:05,VALID,916.425,VALID,0,VALID,97.3434,VALID,0,VALID,19.6473,VALID,105,VALID,0,
2012-11-28, 03:52:05,VALID,916.406,VALID,0,VALID,97.3281,VALID,0,VALID,19.6668,VALID,105,VALID,0,
2012-11-28, 03:53:05,VALID,916.421,VALID,0,VALID,97.3281,VALID,0,VALID,19.6863,VALID,105,VALID,0,
2012-11-28, 03:54:05,VALID,916.399,VALID,0,VALID,97.351,VALID,0,VALID,19.7058,VALID,105,VALID,0,
2012-11-28, 03:55:05,VALID,916.388,VALID,0,VALID,97.351,VALID,0,VALID,19.7058,VALID,105,VALID,0,
2012-11-28, 03:56:05,VALID,916.41,VALID,0,VALID,97.3358,VALID,0,VALID,19.7043,VALID,105,VALID,0,
2012-11-28, 03:57:04,VALID,916.394,VALID,0,VALID,97.3358,VALID,0,VALID,19.7433,VALID,105,VALID,0,
2012-11-28, 03:58:04,VALID,916.392,VALID,0,VALID,97.3358,VALID,0,VALID,19.7643,VALID,105,VALID,0,
2012-11-28, 03:59:04,VALID,916.365,VALID,0,VALID,97.3358,VALID,0,VALID,19.7838,VALID,105,VALID,0,
2012-11-28, 04:00:04,VALID,916.394,VALID,0,VALID,97.3434,VALID,0,VALID,19.7838,VALID,105,VALID,0,